Tiempo cada hora Musajid

Hoy, 31 Octubre, Sábado

Tiempo Temperatura Precipitaciones Viento Presión Humedad
00:00 +25°C° 0 mm 3 mps 761 mmHg 70%
01:00 +25°C° 0 mm 3 mps 761 mmHg 72%
02:00 +24°C° 0 mm 3 mps 761 mmHg 74%
03:00 +24°C° 0 mm 3 mps 761 mmHg 77%
04:00 +24°C° 0 mm 3 mps 761 mmHg 76%
05:00 +24°C° 0 mm 3 mps 761 mmHg 76%
06:00 +23°C° 0 mm 4 mps 762 mmHg 75%
07:00 +26°C° 0 mm 3 mps 762 mmHg 64%
08:00 +29°C° 0 mm 3 mps 762 mmHg 54%
09:00 +31°C° 0 mm 2 mps 763 mmHg 42%
10:00 +32°C° 0 mm 2 mps 762 mmHg 37%
11:00 +34°C° 0 mm 2 mps 762 mmHg 32%
12:00 +35°C° 0 mm 2 mps 761 mmHg 27%
13:00 +35°C° 0 mm 3 mps 761 mmHg 30%
14:00 +34°C° 0 mm 3 mps 761 mmHg 34%
15:00 +34°C° 0 mm 4 mps 760 mmHg 37%
16:00 +32°C° 0 mm 4 mps 760 mmHg 46%
17:00 +30°C° 0 mm 4 mps 761 mmHg 54%
18:00 +28°C° 0 mm 4 mps 761 mmHg 62%
19:00 +28°C° 0 mm 4 mps 761 mmHg 63%
20:00 +28°C° 0 mm 4 mps 761 mmHg 63%
21:00 +27°C° 0 mm 4 mps 762 mmHg 63%
22:00 +27°C° 0 mm 4 mps 762 mmHg 66%
23:00 +26°C° 0 mm 4 mps 761 mmHg 69%

Mañana, 1 Noviembre, Domingo

Tiempo Temperatura Precipitaciones Viento Presión Humedad
00:00 +26°C° 0 mm 4 mps 761 mmHg 72%
01:00 +25°C° 0 mm 3 mps 761 mmHg 72%
02:00 +25°C° 0 mm 3 mps 761 mmHg 72%
03:00 +25°C° 0 mm 3 mps 761 mmHg 72%
04:00 +25°C° 0 mm 3 mps 761 mmHg 70%
05:00 +24°C° 0 mm 3 mps 762 mmHg 69%
06:00 +24°C° 0 mm 3 mps 762 mmHg 67%
07:00 +26°C° 0 mm 2 mps 762 mmHg 60%
08:00 +28°C° 0 mm 2 mps 763 mmHg 52%
09:00 +31°C° 0 mm 1 mps 763 mmHg 45%
10:00 +32°C° 0 mm 1 mps 763 mmHg 40%
11:00 +34°C° 0 mm 2 mps 762 mmHg 34%
12:00 +35°C° 0 mm 2 mps 762 mmHg 29%
13:00 +35°C° 0 mm 2 mps 762 mmHg 30%
14:00 +34°C° 0 mm 2 mps 761 mmHg 31%
15:00 +34°C° 0 mm 3 mps 761 mmHg 32%
16:00 +31°C° 0 mm 3 mps 761 mmHg 38%
17:00 +30°C° 0 mm 3 mps 762 mmHg 45%
18:00 +28°C° 0 mm 3 mps 762 mmHg 51%
19:00 +28°C° 0 mm 3 mps 762 mmHg 54%
20:00 +27°C° 0 mm 3 mps 762 mmHg 56%
21:00 +27°C° 0 mm 4 mps 763 mmHg 59%
22:00 +27°C° 0 mm 3 mps 762 mmHg 61%
23:00 +26°C° 0 mm 3 mps 762 mmHg 63%

Pasado mañana, 2 Noviembre, Lunes

Tiempo Temperatura Precipitaciones Viento Presión Humedad
00:00 +26°C° 0 mm 3 mps 762 mmHg 66%
01:00 +26°C° 0 mm 3 mps 762 mmHg 66%
02:00 +25°C° 0 mm 3 mps 761 mmHg 67%
03:00 +25°C° 0 mm 2 mps 761 mmHg 68%
04:00 +24°C° 0 mm 2 mps 762 mmHg 66%
05:00 +24°C° 0 mm 2 mps 762 mmHg 65%
06:00 +23°C° 0 mm 2 mps 762 mmHg 63%
07:00 +26°C° 0 mm 2 mps 763 mmHg 52%
08:00 +29°C° 0 mm 2 mps 763 mmHg 41%
09:00 +31°C° 0 mm 1 mps 763 mmHg 30%
10:00 +32°C° 0 mm 1 mps 763 mmHg 27%
11:00 +33°C° 0 mm 1 mps 763 mmHg 25%
12:00 +34°C° 0 mm 1 mps 762 mmHg 23%
13:00 +35°C° 0 mm 2 mps 762 mmHg 26%
14:00 +34°C° 0 mm 3 mps 762 mmHg 30%
15:00 +34°C° 0 mm 4 mps 761 mmHg 33%
16:00 +32°C° 0 mm 4 mps 762 mmHg 40%
17:00 +29°C° 0 mm 3 mps 762 mmHg 48%
18:00 +28°C° 0 mm 3 mps 762 mmHg 55%
19:00 +27°C° 0 mm 3 mps 762 mmHg 57%
20:00 +27°C° 0 mm 3 mps 763 mmHg 58%
21:00 +26°C° 0 mm 3 mps 763 mmHg 59%
22:00 +25°C° 0 mm 2 mps 762 mmHg 59%
23:00 +25°C° 0 mm 2 mps 762 mmHg 59%

3 Noviembre, Martes

Tiempo Temperatura Precipitaciones Viento Presión Humedad
00:00 +24°C° 0 mm 2 mps 762 mmHg 60%
01:00 +24°C° 0 mm 2 mps 762 mmHg 59%
02:00 +23°C° 0 mm 2 mps 762 mmHg 59%
03:00 +23°C° 0 mm 2 mps 761 mmHg 59%
04:00 +23°C° 0 mm 2 mps 762 mmHg 58%
05:00 +23°C° 0 mm 2 mps 762 mmHg 56%
06:00 +21°C° 0 mm 2 mps 762 mmHg 55%
07:00 +25°C° 0 mm 2 mps 763 mmHg 47%
08:00 +28°C° 0 mm 2 mps 763 mmHg 38%
09:00 +30°C° 0 mm 2 mps 763 mmHg 30%
10:00 +32°C° 0 mm 2 mps 763 mmHg 28%
11:00 +34°C° 0 mm 2 mps 762 mmHg 25%
12:00 +35°C° 0 mm 2 mps 762 mmHg 23%
13:00 +34°C° 0 mm 3 mps 761 mmHg 26%
14:00 +34°C° 0 mm 4 mps 761 mmHg 30%
15:00 +33°C° 0 mm 5 mps 761 mmHg 33%
16:00 +32°C° 0 mm 4 mps 761 mmHg 41%
17:00 +29°C° 0 mm 4 mps 761 mmHg 48%
18:00 +27°C° 0 mm 4 mps 761 mmHg 56%
19:00 +27°C° 0 mm 3 mps 761 mmHg 58%
20:00 +26°C° 0 mm 3 mps 761 mmHg 61%
21:00 +25°C° 0 mm 2 mps 761 mmHg 63%
22:00 +24°C° 0 mm 2 mps 761 mmHg 66%
23:00 +24°C° 0 mm 2 mps 761 mmHg 68%

4 Noviembre, Miércoles

Tiempo Temperatura Precipitaciones Viento Presión Humedad
00:00 +23°C° 0 mm 2 mps 761 mmHg 70%
01:00 +23°C° 0 mm 2 mps 761 mmHg 69%
02:00 +23°C° 0 mm 2 mps 761 mmHg 69%
03:00 +21°C° 0 mm 2 mps 760 mmHg 68%
04:00 +21°C° 0 mm 2 mps 761 mmHg 66%
05:00 +21°C° 0 mm 3 mps 761 mmHg 63%
06:00 +21°C° 0 mm 3 mps 761 mmHg 61%
07:00 +24°C° 0 mm 3 mps 761 mmHg 53%
08:00 +27°C° 0 mm 3 mps 761 mmHg 44%
09:00 +30°C° 0 mm 3 mps 762 mmHg 35%
10:00 +31°C° 0 mm 2 mps 761 mmHg 32%
11:00 +32°C° 0 mm 2 mps 761 mmHg 28%
12:00 +34°C° 0 mm 2 mps 760 mmHg 25%
13:00 +34°C° 0 mm 3 mps 760 mmHg 27%
14:00 +34°C° 0 mm 3 mps 759 mmHg 30%
15:00 +33°C° 0 mm 4 mps 759 mmHg 33%
16:00 +32°C° 0 mm 4 mps 759 mmHg 42%
17:00 +29°C° 0 mm 3 mps 759 mmHg 52%
18:00 +27°C° 0 mm 3 mps 759 mmHg 61%
19:00 +26°C° 0 mm 3 mps 759 mmHg 63%
20:00 +26°C° 0 mm 2 mps 759 mmHg 66%
21:00 +25°C° 0 mm 2 mps 760 mmHg 68%
22:00 +24°C° 0 mm 2 mps 759 mmHg 70%
23:00 +24°C° 0 mm 1 mps 759 mmHg 72%

5 Noviembre, Jueves

Tiempo Temperatura Precipitaciones Viento Presión Humedad
00:00 +23°C° 0 mm 1 mps 759 mmHg 74%
01:00 +23°C° 0 mm 1 mps 759 mmHg 73%
02:00 +23°C° 0 mm 1 mps 759 mmHg 73%
03:00 +23°C° 0 mm 2 mps 758 mmHg 72%
04:00 +21°C° 0 mm 2 mps 759 mmHg 74%
05:00 +20°C° 0 mm 2 mps 759 mmHg 75%
06:00 +20°C° 0 mm 2 mps 759 mmHg 76%
07:00 +23°C° 0 mm 2 mps 759 mmHg 65%
08:00 +26°C° 0 mm 2 mps 760 mmHg 54%
09:00 +29°C° 0 mm 2 mps 760 mmHg 43%
10:00 +30°C° 0 mm 2 mps 759 mmHg 38%
11:00 +31°C° 0 mm 1 mps 759 mmHg 32%
12:00 +33°C° 0 mm 1 mps 759 mmHg 26%
13:00 +32°C° 0 mm 2 mps 758 mmHg 28%
14:00 +33°C° 0 mm 3 mps 758 mmHg 31%
15:00 +32°C° 0 mm 4 mps 758 mmHg 33%
16:00 +29°C° 0 mm 3 mps 758 mmHg 41%
17:00 +27°C° 0 mm 3 mps 758 mmHg 49%
18:00 +26°C° 0 mm 2 mps 758 mmHg 56%
19:00 +26°C° 0 mm 2 mps 758 mmHg 55%
20:00 +26°C° 0 mm 3 mps 758 mmHg 54%
21:00 +26°C° 0 mm 3 mps 758 mmHg 52%
22:00 +26°C° 0 mm 3 mps 758 mmHg 56%
23:00 +26°C° 0 mm 3 mps 758 mmHg 59%
Mostrar más

Necesitamos Su Consentimiento

Meteoprog y nuestros Proveedores de Servicios pueden almacenar y acceder a sus datos personales como cookies, identificadores de dispositivo u otras tecnologías similares de su dispositivo y procesar dichos datos para personalizar contenido y anuncios, además de ofrecer funciones de redes sociales y analizar el tráfico.

  • Almacenar y/o acceder a información en su dispositivo

    Se puede almacenar o acceder a cookies, identificadores de dispositivo u otra información de su dispositivo para los fines anteriormente indicados.

  • Anuncios y contenido personalizados, medición de anuncios y contenido, percepciones del público, y desarrollo de productos

    Los anuncios y el contenido pueden personalizarse en base a su perfil. Se pueden añadir más datos para personalizar mejor los anuncios y contenidos. Se puede medir el rendimiento de los anuncios y contenidos. Se puede obtener la percepción sobre el público que ha visto los anuncios y contenidos. Dichos datos pueden usarse para desarrollar o mejorar la experiencia del usuario, sistemas y software.

Al hacer clic en ‘Estoy De Acuerdo’ usted permitirá el uso de las cookies, identificadores de dispositivo, balizas web u otras tecnologías similares indicadas. Su configuración puede cambiarse desde el navegador de su dispositivo.

Para ciertos fines, los intereses legítimos pueden ser considerados por encima del consentimiento. Puede leer más sobre ello en nuestra Política de Privacidad y Cookies.